EW8775 Weather Reports


Display with metric or nautical units.
time (UTC)temp
F
wind
direction
speed
MPH
gust
MPH
rain 1hr
in
rain 24hr
in
rain mn
in
humidity
%
barometer
mb
20260903110017 64 0.0 7.0 0.00 0.00 0.00 21 1013.1
20260903103017 66 0.0 5.0 0.00 0.00 0.00 22 1013.2
20260903100017 67 113 1.0 11.0 0.00 0.00 0.00 19 1013.3
20260903093017 67 113 1.0 10.0 0.00 0.00 0.00 21 1013.3
20260903090057 68 113 2.0 10.0 0.00 0.00 0.00 20 1013.2
20260903083017 69 113 1.0 9.0 0.00 0.00 0.00 20 1013.3
20260903080017 71 113 2.0 12.0 0.00 0.00 0.00 19 1013.1
20260903073017 71 113 3.0 13.0 0.00 0.00 0.00 18 1012.9
20260903070057 72 113 3.0 10.0 0.00 0.00 0.00 19 1012.9
20260903063056 73 135 3.0 14.0 0.00 0.00 0.00 19 1012.8
20260903060016 73 135 4.0 16.0 0.00 0.00 0.00 18 1012.3
20260903053018 74 113 4.0 13.0 0.00 0.00 0.00 18 1012.2
20260903050057 75 113 5.0 14.0 0.00 0.00 0.00 17 1012.4
20260903043057 75 135 4.0 12.0 0.00 0.00 0.00 15 1012.2
20260903040018 75 113 2.0 16.0 0.00 0.00 0.00 14 1011.6
20260903033017 76 135 3.0 13.0 0.00 0.00 0.00 16 1011.4
20260903030017 76 135 3.0 14.0 0.00 0.00 0.00 17 1011.1
20260903023017 76 113 1.0 8.0 0.00 0.00 0.00 20 1010.8
20260903020017 77 158 2.0 11.0 0.00 0.00 0.00 21 1010.7
20260903013057 77 158 2.0 9.0 0.00 0.00 0.00 22 1011.2
20260903010017 78 158 2.0 10.0 0.00 0.00 0.00 22 1011.5
20260903003017 79 180 4.0 15.0 0.00 0.00 0.00 21 1011.8
20260903000057 80 180 4.0 12.0 0.00 0.00 0.00 22 1012.0
20260902233022 80 180 5.0 18.0 0.00 0.00 0.00 20 1012.2
20260902230017 80 180 7.0 20.0 0.00 0.00 0.00 18 1012.2
20260902223016 81 180 8.0 20.0 0.00 0.00 0.00 23 1012.4
20260902220056 81 180 8.0 22.0 0.00 0.00 0.00 24 1012.9
20260902213057 81 180 9.0 19.0 0.00 0.00 0.00 25 1013.4
20260902210016 81 180 9.0 22.0 0.00 0.00 0.00 27 1013.8
20260902203017 81 180 9.0 22.0 0.00 0.00 0.00 26 1014.2
20260902200056 80 180 10.0 20.0 0.00 0.00 0.00 32 1014.5
20260902193016 79 180 11.0 26.0 0.00 0.00 0.00 30 1015.1
20260902190016 79 180 11.0 23.0 0.00 0.00 0.00 32 1015.1
20260902183056 78 180 10.0 23.0 0.00 0.00 0.00 34 1015.3
20260902180016 77 180 9.0 21.0 0.00 0.00 0.00 39 1015.6
20260902173016 75 180 7.0 20.0 0.00 0.00 0.00 42 1016.3
20260902170016 74 180 6.0 15.0 0.00 0.00 0.00 41 1015.9
20260902163016 74 158 6.0 16.0 0.00 0.00 0.00 39 1016.1
20260902160036 73 158 7.0 18.0 0.00 0.00 0.00 43 1016.3
20260902153016 72 158 6.0 20.0 0.00 0.00 0.00 41 1016.2
20260902150016 71 158 6.0 16.0 0.00 0.00 0.00 43 1016.0
20260902143015 71 135 5.0 16.0 0.00 0.00 0.00 45 1015.8
20260902140056 70 113 6.0 14.0 0.00 0.00 0.00 45 1015.9
20260902133016 70 135 4.0 11.0 0.00 0.00 0.00 47 1016.2
20260902130015 71 135 3.0 12.0 0.00 0.00 0.00 44 1016.3
20260902123017 70 158 3.0 14.0 0.00 0.00 0.00 44 1016.1
20260902120017 72 135 5.0 15.0 0.00 0.00 0.00 42 1016.4
20260902113018 70 135 2.0 14.0 0.00 0.00 0.00 44 1015.9